Location: Kerroch
(47.9500°N, 4.2833°W)
Time: 06:39:41
(UTC+00:00)

Daily predictions for brighter satellites

Satellite Brightness Start Highest point End
(mag) Time Altitude Azimuth Time Altitude Azimuth Time Altitude Azimuth
Cosmos 1500 Rocket 3.5 20:10:14 10° S 20:14:31 74° E 20:18:52 10° NNE
Cosmos 2322 Rocket 4.4 20:15:45 10° N 20:18:00 12° NNE 20:20:15 10° NE
Ariane Rocket 3.7 20:13:33 10° S 20:18:31 56° W 20:23:31 10° NNW
Cosmos 1992 Rocket 4.5 20:14:32 10° NNW 20:19:43 64° WSW 20:24:53 10° S
Meteor 1-4 Rocket 4.3 20:17:25 10° NNE 20:19:46 17° ENE 20:22:06 10° ESE
USA 186 3.4 20:17:54 10° SSW 20:19:50 23° W 20:21:45 10° NW
Resurs 1-3 3.6 20:15:37 10° SSE 20:19:58 71° ENE 20:24:22 10° N
SL-08 R/B 4.5 20:16:41 10° S 20:22:52 70° E 20:28:59 10° NNE
FREGAT/IRIS 4.1 20:20:55 10° SSW 20:23:20 32° W 20:25:47 10° NNW
SL-8 R/B 4.1 20:19:19 10° W 20:24:02 54° SSW 20:28:44 10° SE
ARGOS 4.5 20:19:04 10° SSW 20:24:07 41° W 20:29:12 10° NNW
CZ-2C R/B 2.6 20:19:16 10° NNE 20:24:28 85° ESE 20:29:41 10° SSW
Cosmos 407 Rocket 4.3 20:19:57 10° SSE 20:24:37 32° E 20:29:17 10° NE
Terra 4.0 20:23:08 10° ENE 20:24:55 12° NE 20:26:42 10° NNE
USA 234 3.7 20:19:51 10° ESE 20:26:15 60° NNE 20:32:40 10° NW
Meteor 1-27 Rocket 4.2 20:24:55 10° N 20:30:40 50° ENE 20:36:26 10° SSE
Meteor 1-10 Rocket 4.3 20:25:37 10° N 20:31:18 77° ENE 20:37:03 10° SSE
Cosmos 1782 4.0 20:28:51 10° NNW 20:32:41 44° W 20:36:31 10° SSW
ERBS 3.3 20:32:24 10° WSW 20:35:38 48° NNW 20:38:52 10° NE
BREEZE-M DEB (TANK) 3.7 20:30:35 10° WNW 20:36:14 32° SW 20:38:54 10° SSE
Cosmos 1805 Rocket 3.6 20:33:16 10° S 20:37:38 64° E 20:42:04 10° NNE
H-2A R/B 4.3 20:33:54 10° SW 20:38:02 24° W 20:42:06 10° NW
SPOT 5 4.4 20:36:04 10° ESE 20:38:57 18° ENE 20:41:51 10° NNE
Cosmos 1980 Rocket 2.9 20:36:59 10° NNW 20:42:22 41° NE 20:47:05 13° ESE
SPOT 1/Viking Rocket 4.3 20:39:53 12° SE 20:44:20 38° ENE 20:49:08 10° N
DMSP B5D2-2 4.5 20:40:35 10° N 20:45:47 68° WNW 20:50:59 10° SSW
SL-4 R/B 2.6 20:42:48 10° SSW 20:46:19 30° SE 20:49:37 10° E
BREEZE-M DEB (TANK) 2.0 20:44:51 10° WSW 20:47:19 84° SSE 20:52:48 10° ENE
Genesis I 4.3 20:44:12 10° NNW 20:47:45 33° NE 20:50:44 13° ESE
Cosmos 972 4.4 20:42:39 10° NNW 20:47:56 83° ENE 20:52:44 11° SSE
Cosmos 1140 Rocket 3.9 20:45:20 10° S 20:50:12 40° ESE 20:55:06 10° NE
ATLAS 5 CENTAUR R/B 2.8 20:45:13 10° NW 20:50:50 59° SW 20:57:17 10° SSE
Cosmos 389 Rocket 2.9 20:50:59 10° NNW 20:54:23 60° W 20:57:47 10° S
Cosmos 2228 Rocket 4.2 20:50:41 10° NNW 20:54:54 44° W 20:59:04 10° SSW
Cosmos 1812 2.9 20:53:40 10° NNW 20:57:30 70° W 21:01:19 10° S
Cosmos 1697 Rocket 2.7 20:52:37 10° NNW 20:58:17 86° ENE 21:03:04 15° SSE
Cosmos 1833 Rocket 2.6 20:53:34 10° SSW 20:59:07 66° ESE 21:04:43 10° NNE
Cosmos 1633 Rocket 3.4 20:55:05 10° SSE 20:59:13 44° E 21:03:27 10° NNE
SPOT 3 Rocket 4.3 20:56:52 10° S 21:01:56 52° W 21:07:02 10° NNW
Cosmos 1867 4.1 21:00:33 10° S 21:05:24 35° ESE 21:10:18 10° NE
CENTAUR R/B 3.8 21:04:46 16° ESE 21:05:59 17° ESE 21:09:59 10° ENE
Cosmos 1707 Rocket 3.5 21:04:41 10° N 21:09:04 85° W 21:12:53 13° S
Resurs 01 Rocket 2.3 21:05:42 10° S 21:10:00 54° W 21:14:23 10° NNW
FALCON 9 DEB 3.8 21:08:53 10° SSW 21:12:04 33° SE 21:15:15 10° ENE
Landsat 7 3.8 21:08:59 16° SSE 21:12:44 75° ENE 21:17:31 10° N
Cosmos 1441 Rocket 3.8 21:10:05 10° SSW 21:13:50 57° WNW 21:17:33 10° N
deb Kosmos-1763 4.4 21:14:16 19° S 21:16:30 42° ESE 21:19:58 10° NE
Cosmos 676 Rocket 4.3 21:14:02 10° S 21:19:03 46° ESE 21:24:09 10° NNE
ATLAS 5 CENTAUR R/B 3.8 21:18:18 10° N 21:19:58 15° NE 21:22:31 10° ENE
IGS 5A 3.4 21:17:35 19° SSE 21:20:31 90° SW 21:24:41 10° NNW
Cosmos 1470 Rocket 4.0 21:19:31 22° SSE 21:21:57 43° E 21:26:07 10° NNE
Cosmos 614 Rocket 4.4 21:17:33 10° SSW 21:22:41 66° WNW 21:27:53 10° NNE
Cosmos 1934 Rocket 4.0 21:17:33 10° S 21:23:54 79° E 21:30:18 10° N
Aureole 1 Rocket 4.4 21:18:12 10° S 21:24:50 64° ESE 21:32:57 10° NNE
Cosmos 2360 4.3 21:19:47 10° NNW 21:25:33 78° WSW 21:29:33 20° SSE
Shenzhou-11 Module 3.7 21:24:19 10° WSW 21:25:15 15° SW 21:25:15 15° SW
SWAS 4.4 21:22:21 10° SSW 21:26:40 88° SE 21:31:02 10° NNE
GP-B 3.0 21:23:10 10° N 21:27:38 77° E 21:30:41 20° S
NOSS 3-2 (A) 3.7 21:26:05 10° S 21:31:21 42° ESE 21:37:19 10° NE
Cosmos 921 Rocket 3.3 21:28:58 10° N 21:33:07 52° ENE 21:34:51 31° SE
USA 267 3.3 21:26:43 10° NE 21:33:18 88° NNW 21:39:52 10° WSW
Cosmos 1862 Rocket 3.5 21:31:08 10° N 21:35:39 89° ESE 21:38:10 25° S
NOSS 3-2 (C) 4.1 21:35:51 25° SE 21:37:29 29° ESE 21:42:48 10° NE
COSMOS 2406 4.2 21:32:03 10° SW 21:37:39 50° NW 21:43:14 10° NNE
ERS-1 Rocket 2.9 21:36:09 26° SSE 21:38:58 73° ENE 21:44:00 10° N
OPS 6432 4.4 21:35:00 10° SSW 21:39:13 69° SE 21:42:28 10° NE
Meteor 2-20 Rocket 4.5 21:33:50 10° N 21:40:03 84° W 21:44:35 19° S
SAR-Lupe-2 3.8 21:37:43 10° NNE 21:41:13 48° E 21:41:55 41° SE
SL-16 R/B 3.1 21:35:57 10° NNW 21:41:13 37° NE 21:44:17 21° ESE
Sich 1 4.5 21:37:49 10° SW 21:41:58 39° WNW 21:46:09 10° N
Lacrosse 5 2.6 21:37:09 10° NW 21:42:04 48° NNE 21:45:32 19° E
Cosmos 468 Rocket 4.5 21:38:07 10° NNW 21:43:18 49° ENE 21:45:45 28° ESE
Cosmos 2369 4.4 21:40:40 10° NW 21:46:09 48° WSW 21:50:01 19° S
Cosmos 1954 Rocket 3.9 21:47:00 10° SSW 21:52:20 83° ESE 21:57:42 10° NNE
Cosmos 2082 Rocket 2.2 21:46:39 10° SSW 21:52:21 84° WNW 21:58:05 10° NNE
Meteor 1-4 Rocket 3.8 21:51:45 10° NNW 21:54:56 33° W 21:56:38 21° SW
Spot 2 Rocket 4.3 21:51:36 17° SSW 21:55:19 47° W 22:00:15 10° NNW
Cosmos 1184 Rocket 3.2 21:53:56 29° SSW 21:55:24 60° WNW 21:58:41 10° N
Cosmos 2278 4.1 21:49:52 10° NW 21:55:29 59° WSW 21:58:39 26° S
CARTOSAT-1 3.6 21:57:12 34° S 21:59:02 73° WSW 22:03:23 10° NNW
Terra 1.8 22:00:02 38° SSE 22:01:50 75° ENE 22:06:37 10° N
Cosmos 1933 Rocket 3.4 22:01:23 37° S 22:03:08 81° E 22:07:34 10° NNE
Cosmos 2322 Rocket 2.9 21:58:13 10° NNW 22:03:40 43° NE 22:06:13 28° ESE
Okean 1 3.2 22:02:03 10° N 22:06:07 89° E 22:07:07 50° S
Cosmos 1238 Rocket 2.4 22:06:54 57° WSW 22:07:13 63° W 22:10:10 10° N
Cosmos 1602 3.6 22:06:47 50° S 22:07:44 84° E 22:11:42 10° N
Cosmos 2100 Rocket 4.3 22:05:35 33° SE 22:07:46 46° E 22:13:35 10° NNE
USA 234 3.4 22:06:06 31° SSE 22:09:18 59° SW 22:15:46 10° WNW
Meteor 1-20 Rocket 4.4 22:05:30 17° SSW 22:10:05 76° WNW 22:15:59 10° N
Cosmos 1437 Rocket 2.6 22:06:36 10° N 22:10:25 67° ENE 22:10:50 60° ESE
Cosmos 1605 Rocket 4.1 22:05:45 16° SSW 22:10:45 74° W 22:16:52 10° N
Cosmos 1869 Rocket 4.0 22:13:01 41° ESE 22:13:20 42° E 22:17:33 10° NNE
SPOT 5 3.0 22:15:08 36° SSW 22:16:38 57° W 22:20:56 10° NNW
Cosmos 2360 Rocket 3.4 22:12:37 10° NNW 22:17:44 33° NE 22:20:19 23° E
JB-3 4.3 22:16:34 10° NNE 22:20:32 60° E 22:20:44 59° ESE
ATLAS 3B R/B 3.8 22:21:12 23° ESE 22:21:12 23° ESE 22:25:38 10° ENE
Iridium 4 Rocket 3.4 22:21:44 46° ESE 22:22:05 47° E 22:26:09 10° NNE
Meteor 1-19 Rocket 4.1 22:17:03 10° NNW 22:22:30 79° W 22:24:35 39° S
Geosat 4.4 22:20:48 36° ESE 22:22:32 53° NE 22:27:25 10° NNW
Cosmos 2173 Rocket 4.1 22:21:11 38° SSE 22:23:16 56° E 22:29:15 10° NNE
Cosmos 1703 Rocket 3.5 22:18:57 10° NNW 22:23:20 81° W 22:24:15 54° S
Cosmos 2242 Rocket 3.9 22:19:15 10° NNW 22:23:38 59° W 22:24:57 40° SSW
Cosmos 1500 3.7 22:25:10 44° ENE 22:25:10 44° ENE 22:28:19 10° NNE
Genesis I 4.3 22:21:50 10° NW 22:25:19 32° WSW 22:25:37 31° SW
Cosmos 405 Rocket 3.1 22:24:28 42° SW 22:25:24 57° WNW 22:29:05 10° N
SL-4 R/B 1.9 22:21:54 10° WSW 22:25:44 73° NNW 22:27:13 33° ENE
Cosmos 1980 Rocket 3.2 22:21:09 10° NW 22:26:21 38° WSW 22:28:51 25° SSW
USA 238 DEB 3.6 22:20:32 10° SW 22:27:11 87° SE 22:34:09 10° NE
USA 238 3.6 22:20:39 10° SW 22:27:17 87° SE 22:34:15 10° NE
ALOS 2 4.4 22:27:44 18° ENE 22:28:34 19° ENE 22:31:42 10° NNE
Cosmos 1763 Rocket 3.5 22:24:16 10° NNW 22:29:37 85° WSW 22:31:09 48° SSE
Meteor 1-14 Rocket 4.3 22:29:24 32° SSW 22:32:16 86° WNW 22:38:15 10° N
Cosmos 1536 4.5 22:34:39 22° ENE 22:34:39 22° ENE 22:37:02 10° NE
Cosmos 1666 4.2 22:37:32 25° ENE 22:37:32 25° ENE 22:39:47 10° NNE
Cosmos 2333 Rocket 4.0 22:33:21 10° N 22:37:57 24° NE 22:41:19 15° E
Cosmos 2016 Rocket 4.3 22:39:51 42° SE 22:41:31 53° E 22:47:41 10° NNE
Meteor 1-13 Rocket 4.3 22:36:37 10° N 22:42:07 61° ENE 22:43:23 48° SE
Meteor 1-5 Rocket 4.4 22:40:38 47° SSE 22:42:15 65° E 22:48:09 10° NNE
Cosmos 2061 Rocket 4.2 22:41:23 43° SE 22:42:55 54° E 22:48:55 10° NNE
Okean 1-7 3.4 22:40:24 10° NNW 22:44:39 54° W 22:45:21 48° SW
Cosmos 1459 Rocket 3.9 22:42:35 42° S 22:44:52 79° E 22:51:15 10° N
MOS 1-B Rocket 3.9 22:40:01 10° NNE 22:45:39 58° ESE 22:46:44 49° SE
Cosmos 2221 Rocket 3.8 22:41:52 10° N 22:46:16 55° ENE 22:46:29 54° E
Cosmos 1867 4.5 22:43:36 10° WSW 22:48:52 49° NW 22:54:11 10° NNE
FALCON 9 DEB 3.8 22:45:32 10° W 22:48:49 55° NW 22:48:49 55° NW
Okean 3 3.4 22:46:08 10° N 22:50:26 73° E 22:50:30 73° E
Cosmos 1733 Rocket 4.1 22:50:59 32° ENE 22:50:59 32° ENE 22:54:25 10° NNE
SL-27 R/B 3.6 22:53:09 37° NNE 22:53:09 37° NNE 22:55:17 10° NNE
CENTAUR R/B 2.4 22:51:50 28° SSW 22:55:20 84° SE 23:02:30 10° NE
Cosmos 1850 Rocket 4.2 22:54:34 36° SW 22:56:44 71° WNW 23:02:02 10° NNE
Thor Agena Rocket 3.7 22:51:55 10° NNE 22:56:51 50° E 22:57:00 49° ESE
Cosmos 967 Rocket 4.5 22:52:39 10° NW 22:59:04 76° NE 23:01:03 46° SE
Meteor 2-4 Rocket 3.9 22:53:52 10° NNW 22:59:30 64° W 23:00:58 47° SSW
Cosmos 1802 Rocket 4.0 22:58:40 46° S 23:00:45 85° E 23:07:10 10° N
Cosmos 44 3.2 22:55:57 10° NW 23:00:53 82° NE 23:01:33 67° ESE
Spot 4 3.7 23:06:33 73° SE 23:06:58 80° ENE 23:11:49 10° NNW
Cosmos 2346 Rocket 4.3 23:03:40 10° N 23:09:46 89° W 23:11:12 55° S
Cosmos 2233 Rocket 4.3 23:14:31 47° ESE 23:15:36 52° E 23:21:43 10° NNE
USA 267 4.2 23:09:48 10° NE 23:16:00 46° NNW 23:22:10 10° W
Cosmos 841 Rocket 3.6 23:16:28 10° NNW 23:21:36 58° WSW 23:22:05 56° SW
NOSS 3-2 (A) 4.3 23:16:26 10° WSW 23:22:07 48° NW 23:28:40 10° NE
Cosmos 540 Rocket 3.6 23:17:41 10° NNW 23:22:47 59° WSW 23:23:10 57° SW
Lacrosse 5 2.3 23:20:12 10° WNW 23:24:41 49° WSW 23:24:41 49° WSW
Cosmos 1816 Rocket 4.4 23:18:54 10° N 23:25:14 84° W 23:26:36 57° S
SL-16 R/B 2.8 23:20:04 10° NW 23:25:24 43° WSW 23:26:08 41° SW
NOSS 3-2 (C) 3.8 23:23:11 16° WSW 23:27:49 63° NW 23:34:31 10° NE
Cosmos 2322 4.1 23:22:40 10° NNW 23:28:16 56° ENE 23:29:31 46° ESE
Cosmos 1833 4.3 23:28:44 56° ESE 23:28:46 56° ESE 23:34:18 10° NE
Cosmos 1378 Rocket 4.0 23:24:41 10° N 23:28:49 54° ENE 23:28:49 54° ENE
Cosmos 2084 Rocket 3.7 23:35:30 65° NNW 23:35:30 65° NNW 23:39:29 10° NE
Cosmos 2208 Rocket 4.3 23:30:18 10° NNW 23:35:25 52° WSW 23:35:41 51° WSW
Cosmos 1814 Rocket 4.2 23:30:26 10° NNW 23:35:30 54° WSW 23:35:45 54° WSW
Cosmos 2219 Rocket 2.9 23:31:16 10° NNW 23:36:46 47° NE 23:38:19 38° E
Tsikada Rocket 4.0 23:32:03 10° NNW 23:38:25 77° W 23:39:45 57° SSW
Terra 4.0 23:38:55 13° WSW 23:40:09 15° W 23:42:45 10° NW
EO 1 Del DPAF 4.0 23:37:01 10° N 23:39:56 50° N 23:39:56 50° N
Cosmos 2237 4.2 23:36:27 10° NNW 23:42:06 63° WSW 23:42:34 61° SW
Cosmos 2333 4.3 23:36:56 10° NNW 23:42:44 71° ENE 23:43:44 58° ESE
Cosmos 1242 Rocket 3.9 23:43:44 10° NNW 23:46:08 38° NNW 23:46:08 38° NNW
Cosmos 2322 Rocket 3.1 23:42:30 10° NW 23:47:37 35° WSW 23:48:01 35° WSW
Helios 1A 3.8 23:49:48 44° NE 23:49:48 44° NE 23:53:31 10° N
Cosmos 1486 Rocket 4.1 23:52:11 60° E 23:52:11 60° E 23:57:04 10° NNE
Meteor 1-11 Rocket 4.2 23:51:38 44° WSW 23:52:58 54° WNW 23:58:36 10° N
